When you browse on this site, cookies collect data to enhance your experience and personalize the content and advertising you see.
Visit our Privacy Policy to learn more. By continuing to use the site, you agree to this use of cookies and data.
  • In Hungary
  • List of Countries
  • For 7 days
  • Water Temperature
  • Satellite Maps
  • Weather Map
  • News
  • Weather Widgets
  • user-avatar
    Login

    Hourly Weather Chengalpattu

    Today, 17 November, Saturday

    Time Temperature Precipitation Wind Pressure Humidity
    00:00 +25°C° 0 mm 0 mps 755 mmHg 86%
    01:00 +25°C° 0 mm 0 mps 755 mmHg 87%
    02:00 +27°C° 0 mm 1 mps 755 mmHg 88%
    03:00 +27°C° 0 mm 1 mps 755 mmHg 88%
    04:00 +26°C° 0 mm 1 mps 755 mmHg 89%
    05:00 +26°C° 0 mm 1 mps 755 mmHg 89%
    06:00 +27°C° 0 mm 1 mps 755 mmHg 85%
    07:00 +28°C° 0 mm 1 mps 756 mmHg 80%
    08:00 +29°C° 0 mm 1 mps 756 mmHg 75%
    09:00 +30°C° 0 mm 1 mps 756 mmHg 70%
    10:00 +32°C° 0 mm 1 mps 755 mmHg 66%
    11:00 +33°C° 0 mm 1 mps 755 mmHg 61%
    12:00 +34°C° 0 mm 2 mps 754 mmHg 60%
    13:00 +34°C° 0 mm 2 mps 754 mmHg 59%
    14:00 +35°C° 0 mm 3 mps 753 mmHg 59%
    15:00 +33°C° 0.5 mm 3 mps 753 mmHg 64%
    16:00 +31°C° 0.5 mm 3 mps 753 mmHg 70%
    17:00 +30°C° 0.5 mm 4 mps 753 mmHg 76%
    18:00 +29°C° 0.2 mm 3 mps 754 mmHg 78%
    19:00 +29°C° 0.2 mm 3 mps 754 mmHg 80%
    20:00 +28°C° 0.2 mm 2 mps 755 mmHg 82%
    21:00 +28°C° 0 mm 2 mps 755 mmHg 83%
    22:00 +28°C° 0 mm 2 mps 755 mmHg 84%
    23:00 +28°C° 0 mm 1 mps 755 mmHg 85%

    Tomorrow, 18 November, Sunday

    Time Temperature Precipitation Wind Pressure Humidity
    00:00 +28°C° 0 mm 1 mps 755 mmHg 86%
    01:00 +28°C° 0 mm 1 mps 754 mmHg 86%
    02:00 +27°C° 0 mm 1 mps 754 mmHg 87%
    03:00 +27°C° 0.3 mm 1 mps 754 mmHg 88%
    04:00 +27°C° 0.3 mm 1 mps 754 mmHg 89%
    05:00 +27°C° 0.3 mm 1 mps 754 mmHg 89%
    06:00 +28°C° 0.4 mm 1 mps 755 mmHg 86%
    07:00 +29°C° 0.4 mm 1 mps 756 mmHg 82%
    08:00 +30°C° 0.4 mm 1 mps 756 mmHg 78%
    09:00 +30°C° 0.5 mm 1 mps 756 mmHg 73%
    10:00 +31°C° 0.5 mm 2 mps 756 mmHg 68%
    11:00 +32°C° 0.5 mm 2 mps 756 mmHg 62%
    12:00 +34°C° 0.5 mm 3 mps 755 mmHg 61%
    13:00 +34°C° 0.5 mm 3 mps 754 mmHg 60%
    14:00 +34°C° 0.5 mm 3 mps 754 mmHg 59%
    15:00 +33°C° 0.1 mm 3 mps 754 mmHg 64%
    16:00 +32°C° 0.1 mm 4 mps 754 mmHg 68%
    17:00 +30°C° 0.1 mm 4 mps 754 mmHg 73%
    18:00 +29°C° 0 mm 3 mps 755 mmHg 76%
    19:00 +29°C° 0 mm 3 mps 755 mmHg 79%
    20:00 +28°C° 0 mm 3 mps 756 mmHg 82%
    21:00 +28°C° 0 mm 3 mps 756 mmHg 83%
    22:00 +28°C° 0 mm 3 mps 756 mmHg 84%
    23:00 +28°C° 0 mm 3 mps 756 mmHg 85%

    Day after tomorrow, 19 November, Monday

    Time Temperature Precipitation Wind Pressure Humidity
    00:00 +28°C° 0.5 mm 3 mps 755 mmHg 87%
    01:00 +27°C° 0.5 mm 3 mps 755 mmHg 88%
    02:00 +27°C° 0.5 mm 2 mps 755 mmHg 89%
    03:00 +27°C° 0.1 mm 2 mps 755 mmHg 90%
    04:00 +27°C° 0.1 mm 2 mps 755 mmHg 90%
    05:00 +27°C° 0.1 mm 2 mps 755 mmHg 90%
    06:00 +28°C° 0.1 mm 2 mps 756 mmHg 87%
    07:00 +29°C° 0.1 mm 3 mps 756 mmHg 83%
    08:00 +30°C° 0.1 mm 3 mps 757 mmHg 79%
    09:00 +30°C° 0.1 mm 3 mps 757 mmHg 74%
    10:00 +32°C° 0.1 mm 4 mps 757 mmHg 70%
    11:00 +33°C° 0.1 mm 4 mps 757 mmHg 65%
    12:00 +33°C° 0.5 mm 5 mps 756 mmHg 65%
    13:00 +33°C° 0.5 mm 5 mps 755 mmHg 65%
    14:00 +34°C° 0.5 mm 6 mps 755 mmHg 65%
    15:00 +32°C° 0.5 mm 5 mps 755 mmHg 69%
    16:00 +30°C° 0.5 mm 5 mps 755 mmHg 74%
    17:00 +29°C° 0.5 mm 5 mps 755 mmHg 79%
    18:00 +29°C° 0.4 mm 4 mps 756 mmHg 81%
    19:00 +28°C° 0.4 mm 4 mps 757 mmHg 84%
    20:00 +28°C° 0.4 mm 4 mps 758 mmHg 86%
    21:00 +28°C° 0.5 mm 4 mps 757 mmHg 87%
    22:00 +27°C° 0.5 mm 4 mps 757 mmHg 88%
    23:00 +27°C° 0.5 mm 4 mps 757 mmHg 89%

    20 November, Tuesday

    Time Temperature Precipitation Wind Pressure Humidity
    00:00 +27°C° 0.4 mm 4 mps 756 mmHg 89%
    01:00 +27°C° 0.4 mm 4 mps 756 mmHg 89%
    02:00 +27°C° 0.4 mm 4 mps 755 mmHg 88%
    03:00 +27°C° 0.7 mm 4 mps 755 mmHg 89%
    04:00 +27°C° 0.7 mm 4 mps 755 mmHg 90%
    05:00 +27°C° 0.7 mm 4 mps 755 mmHg 90%
    06:00 +27°C° 1.4 mm 5 mps 756 mmHg 87%
    07:00 +28°C° 1.4 mm 5 mps 757 mmHg 83%
    08:00 +29°C° 1.4 mm 6 mps 757 mmHg 80%
    09:00 +28°C° 2.1 mm 6 mps 757 mmHg 81%
    10:00 +28°C° 2.1 mm 6 mps 757 mmHg 82%
    11:00 +28°C° 2.1 mm 6 mps 757 mmHg 84%
    12:00 +28°C° 3.2 mm 6 mps 756 mmHg 85%
    13:00 +27°C° 3.2 mm 6 mps 755 mmHg 87%
    14:00 +27°C° 3.2 mm 7 mps 754 mmHg 88%
    15:00 +27°C° 4 mm 7 mps 754 mmHg 89%
    16:00 +26°C° 4 mm 7 mps 755 mmHg 90%
    17:00 +26°C° 4 mm 8 mps 755 mmHg 91%
    18:00 +26°C° 2.8 mm 8 mps 755 mmHg 91%
    19:00 +26°C° 2.8 mm 8 mps 756 mmHg 90%
    20:00 +27°C° 2.8 mm 8 mps 756 mmHg 90%
    21:00 +26°C° 4.6 mm 8 mps 756 mmHg 90%
    22:00 +26°C° 4.6 mm 8 mps 756 mmHg 91%
    23:00 +26°C° 4.6 mm 8 mps 756 mmHg 91%

    21 November, Wednesday

    Time Temperature Precipitation Wind Pressure Humidity
    00:00 +26°C° 6.1 mm 9 mps 755 mmHg 91%
    01:00 +26°C° 6.1 mm 9 mps 754 mmHg 91%
    02:00 +27°C° 6.1 mm 10 mps 754 mmHg 90%
    03:00 +27°C° 3.9 mm 10 mps 754 mmHg 90%
    04:00 +27°C° 3.9 mm 10 mps 754 mmHg 89%
    05:00 +27°C° 3.9 mm 10 mps 754 mmHg 89%
    06:00 +27°C° 2 mm 10 mps 755 mmHg 88%
    07:00 +27°C° 2 mm 10 mps 755 mmHg 88%
    08:00 +27°C° 2 mm 10 mps 756 mmHg 88%
    09:00 +27°C° 1.6 mm 9 mps 756 mmHg 87%
    10:00 +27°C° 1.6 mm 8 mps 756 mmHg 87%
    11:00 +28°C° 1.6 mm 8 mps 756 mmHg 86%
    12:00 +28°C° 1.3 mm 7 mps 755 mmHg 85%
    13:00 +28°C° 1.3 mm 7 mps 755 mmHg 83%
    14:00 +29°C° 1.3 mm 6 mps 754 mmHg 82%
    15:00 +28°C° 1.2 mm 6 mps 754 mmHg 84%
    16:00 +27°C° 1.2 mm 5 mps 755 mmHg 86%
    17:00 +27°C° 1.2 mm 5 mps 755 mmHg 88%
    18:00 +27°C° 1.3 mm 5 mps 755 mmHg 88%
    19:00 +27°C° 1.3 mm 5 mps 756 mmHg 89%
    20:00 +26°C° 1.3 mm 5 mps 757 mmHg 89%
    21:00 +26°C° 1.6 mm 5 mps 757 mmHg 89%
    22:00 +26°C° 1.6 mm 5 mps 757 mmHg 89%
    23:00 +26°C° 1.6 mm 5 mps 756 mmHg 89%

    22 November, Thursday

    Time Temperature Precipitation Wind Pressure Humidity
    00:00 +26°C° 1.2 mm 4 mps 756 mmHg 89%
    01:00 +26°C° 1.2 mm 4 mps 755 mmHg 90%
    02:00 +26°C° 1.2 mm 4 mps 755 mmHg 91%
    03:00 +26°C° 1.3 mm 3 mps 755 mmHg 91%
    04:00 +26°C° 1.3 mm 3 mps 756 mmHg 91%
    05:00 +26°C° 1.3 mm 3 mps 756 mmHg 91%
    06:00 +27°C° 1.2 mm 3 mps 757 mmHg 88%
    07:00 +28°C° 1.2 mm 3 mps 757 mmHg 85%
    08:00 +28°C° 1.2 mm 3 mps 758 mmHg 82%
    09:00 +29°C° 1.1 mm 4 mps 758 mmHg 79%
    10:00 +30°C° 1.1 mm 4 mps 757 mmHg 76%
    11:00 +30°C° 1.1 mm 4 mps 757 mmHg 73%
    12:00 +30°C° 1 mm 4 mps 756 mmHg 73%
    13:00 +30°C° 1 mm 4 mps 756 mmHg 74%
    14:00 +30°C° 1 mm 4 mps 755 mmHg 74%
    15:00 +29°C° 0.8 mm 4 mps 755 mmHg 77%
    16:00 +29°C° 0.8 mm 4 mps 755 mmHg 81%
    17:00 +28°C° 0.8 mm 4 mps 755 mmHg 84%
    18:00 +27°C° 0.7 mm 4 mps 756 mmHg 86%
    19:00 +27°C° 0.7 mm 4 mps 757 mmHg 87%
    20:00 +27°C° 0.7 mm 4 mps 757 mmHg 89%
    21:00 +27°C° 0.4 mm 3 mps 757 mmHg 89%
    22:00 +27°C° 0.4 mm 3 mps 757 mmHg 89%
    23:00 +27°C° 0.4 mm 3 mps 757 mmHg 90%
    Show more